Regional Weather Roundup
Issued by NWS Charleston, SC

Current Version | Previous Version | Graphics & Text | Print | Product List | Glossary On
Versions: 1 2 3 4 5 6 7 8 9 10 11 12 13 14 15 16 17 18 19 20 21 22 23 24 25 26 27 28 29 30 31 32 33 34 35 36 37 38 39 40 41 42 43 44 45 46 47 48 49 50
000
ASUS42 KCHS 180025
RWRCHS

REGIONAL WEATHER ROUNDUP
NATIONAL WEATHER SERVICE CHARLESTON SC
800 PM EDT THU APR 17 2014

NOTE: "FAIR" INDICATES FEW OR NO CLOUDS BELOW 12,000 FEET WITH NO
SIGNIFICANT WEATHER AND/OR OBSTRUCTIONS TO VISIBILITY.

NOT ALL STATIONS ARE QUALITY CONTROLLED BY THE NATIONAL
WEATHER SERVICE. USE DATA WITH CAUTION...ESPECIALLY
DEWPOINT OBSERVATIONS.

SCZ027-030-031-034>040-042>050-180100-
...SOUTH CAROLINA...

CITY           SKY/WX    TMP DP  RH WIND       PRES   REMARKS
N CHARLESTON   MOCLDY    63  47  55 E12       30.35S
6HR MIN TEMP:  63; 6HR MAX TEMP:  73;

WATERFRONT PRK   N/A     63 N/A N/A NE16        N/A
FORT JOHNSON     N/A     61  52  72 E8G16     30.40F
MOUNT PLEASANT FAIR     N/A N/A N/A E3        30.36S
JOHNS ISLAND   CLEAR     61  54  77 NE12      30.36S
PINOPOLIS        N/A     66  52  59 NE9       30.27S
MONCKS CORNER  FAIR      66  52  59 SE3       30.35S
SUMMERVILLE    FAIR      63  50  63 CALM      30.35R
BEAUFORT MCAS  PTCLDY    63  48  58 SE12      30.33F
6HR MIN TEMP:  63; 6HR MAX TEMP:  71;

BEAUFORT ARPT  FAIR      61  52  72 E15       30.34R
HILTON HEAD IS CLEAR     63  52  67 NE13G24   30.34F
GEORGETOWN     NOT AVBL
WALTERBORO     PTCLDY    61  50  67 E5        30.35R
ORANGEBURG     CLEAR     62  42  47 NE5       30.36S
6HR MIN TEMP:  62; 6HR MAX TEMP:  67;

BARNWELL       FAIR      61  45  55 E7        30.35S
AIKEN          FAIR      59  41  51 CALM      30.38S
MANNING        FAIR      59  48  67 CALM      30.36S
KINGSTREE      NOT AVBL
COLUMBIA       PTCLDY    63  39  41 E7        30.36R
6HR MIN TEMP:  62; 6HR MAX TEMP:  70;

SUMTER         CLEAR     57  43  59 NE5       30.35F
6HR MIN TEMP:  57; 6HR MAX TEMP:  67; 6HR PCP: TRACE;

FLORENCE       CLEAR     62  43  49 NE6       30.38S
6HR MIN TEMP:  62; 6HR MAX TEMP:  68;

MYRTLE BEACH   CLEAR     61  52  72 E12       30.38R
N MYRTLE BEACH CLEAR     60  52  74 E10       30.37R
6HR MIN TEMP:  60; 6HR MAX TEMP:  68;


$$

GAZ063-065-086>088-099>101-113>116-118-119-134-136>141-150-180100-
...GEORGIA...

CITY           SKY/WX    TMP DP  RH WIND       PRES   REMARKS
SAVANNAH ARPT  MOCLDY    62  49  62 E12       30.33F
6HR MIN TEMP:  62; 6HR MAX TEMP:  72;

HUNTER AAF     PTCLDY    61  51  70 E9        30.31S
6HR MIN TEMP:  61; 6HR MAX TEMP:  68;

FORT STEWART   MOCLDY    61  52  73 E9        30.31R
6HR MIN TEMP:  61; 6HR MAX TEMP:  70;

STATESBORO     NOT AVBL
SYLVANIA       MOCLDY    64  49  57 NE3       30.34R
CLAXTON        MOCLDY    64  54  68 E3        30.31S
THOMSON        CLOUDY    60  44  55 CALM      30.39R
AUGUSTA-BUSH   MOCLDY    60  42  51 NE7       30.33S
6HR MIN TEMP:  60; 6HR MAX TEMP:  70;

AUGUSTA-DANIEL MOCLDY    65  38  36 NE9       30.34S
SWAINSBORO     MOCLDY    61  48  63 CALM      30.33R
VIDALIA        CLOUDY    63  52  67 E6        30.31S
ALMA           CLOUDY    63  47  55 E13G21    30.28R
6HR MIN TEMP:  63; 6HR MAX TEMP:  68;

WAYCROSS       NOT AVBL
JESUP          CLOUDY    59  52  77 E8        30.32S
BRUNSWICK      CLOUDY    61  55  82 NE14G21   30.31S
SAINT SIMONS   CLOUDY    62  56  80 NE18G25   30.30S
6HR MIN TEMP:  60; 6HR MAX TEMP:  64; 6HR PCP: TRACE;


$$

SCZ027-028-034-036>038-045-046-048>050-GAZ119-141-180100-
...LAKE AND SUPPLEMENTAL COASTAL OBSERVATIONS...

STATION/POSITION TIME  TEMP    WIND        PRES    WAVE   SWELL
                       AIR SEA DIR/SP/G            HT/PER HT/PER/DIR
                 (UTC) (F)     (DEG/KT/KT) (MB)    (FT/S) (FT/S/D)
UPR LAKE MARION  NOT AVBL
WINYAH BAY       0000   61      70/  8     1028.0S
LAKE MURRAY      0000   63      40/  2/  4 1027.4R
ACE BASIN NERRS  0000   61      70/  4     1027.0S
FORT PULASKI     0000   62 60   60/ 22/ 28 1027.3R
SAPELO ISLAND    0000   61      50/ 14     1026.0S

$$

ANZ835-935-AMZ111-154-330-350-352-354-374-450-454-472-180100-
...C-MAN AND BUOY OBSERVATIONS...

STATION/POSITION TIME  TEMP    WIND        PRES    WAVE   SWELL
                       AIR SEA DIR/SP/G            HT/PER HT/PER/DIR
                 (UTC) (F)     (DEG/KT/KT) (MB)    (FT/S) (FT/S/D)
FOLLY BEACH CMAN 0000   61      60/ 18/ 21 1028.1F
BUOY 41004       NOT AVBL
BUOY 41008       0000   63 64   50/ 23/ 27 1025.2F   7/ 6   3/ 50/11
5E ST. MARYS GA  0000      64                N/A     8/ 6   2/ 80/11
FRYING PAN BUOY  0000   61 63   60/ 21/ 25 1027.6R   9/ 8   3/120/ 9
BUOY 41025       NOT AVBL
CAPE LOOKOUT NC  0000   55      20/ 16/ 19 1029.3F
BUOY 41002       NOT AVBL
BUOY 41010       0000   73 76   70/ 21/ 25 1021.6R   9/10   7/ 30/10
BUOY 41012       NOT AVBL
ST AUGUSTINE FL  0000   65      20/ 13/ 14 1024.2R
CAPERS NEARSHORE 2300           80/ 17/ 19   N/A
FRIPP NEARSHORE  2300   62      70/ 16/ 21   N/A


$$



USA.gov is the U.S. government's official web portal to all federal, state and local government web resources and services.